Weather in Digos

Philippines     6°45′21″N   125°21′20″E
temp.,
°C
wind,
m/s
gust,
m/s
humid.,
%
clouds,
%
prec.,
mm/h
press.,
hPa
HPBL,
m
28 october, thu
thu2823:00+23wnw2496100 3.8 1013100
02:00+22wnw2295100 3.8 101141
05:00+22nw1195100 0.0 101123
08:00+26ese128479 0.0 1013381
11:00+29ese456578 0.0 10111033
14:00+29ese45645 0.0 1009787
17:00+25ese23855 0.0 100958
20:00+23nne119025 0.0 101217
29 october, fri
fri2923:00+23nw118930 0.0 101217
02:00+23nnw11895 0.0 101113
05:00+22nw11902 0.0 101112
08:00+27se127810 0.0 1013530
11:00+29se446695 0.1 10121087
14:00+29ese4468100 1.1 1010940
17:00+25ese248571 0.9 1011135
20:00+23ene1195100 5.4 101326
30 october, sat
sat3023:00+23n019473 1.6 101316
02:00+22nw019458 1.6 101114
05:00+22n11949 0.0 101216
08:00+26sse117815 0.0 1013417
11:00+29se226211 0.0 10121072
14:00+30ese226467 0.1 10091007
17:00+26ese228456 1.0 101027
20:00+23n11889 1.6 101314
31 october, sun
sun3123:00+23nw118796 0.0 101214
02:00+22nw1188100 0.0 101014
05:00+22nnw1188100 0.0 101114
08:00+26se117697 0.0 1013460
11:00+30se336465 0.0 10111172
14:00+29ese4467100 0.9 10091009
17:00+25ese2585100 1.0 1010167
20:00+23ene1293100 4.1 101341
1 november, mon
mon123:00+23ne1293100 0.3 101351
02:00+23wnw1192100 0.3 101017
05:00+22nnw119142 0.0 101112
08:00+26sse117647 0.0 1012449
11:00+30se336444 0.3 1011997
14:00+30ese456275 0.6 10081050
17:00+25ese248397 0.7 1010132
20:00+23se019283 1.5 101221